Terminal Aerodrome Forecast
Issued by NWS

Home | Current Version | Previous Version | Text Only | Print | Product List | Glossary On
Versions: 1 2 3 4 5 6 7 8 9 10 11 12 13 14 15
000
FTUS44 KTSA 252300
TAFFYV
TAF
KFYV 252320Z 2600/2624 32013G24KT P6SM OVC030
     FM260300 34009KT P6SM OVC030
     FM260900 VRB03KT P6SM SKC
     FM261600 23010KT P6SM SKC=

USA.gov is the U.S. government's official web portal to all federal, state and local government web resources and services.